Overview Statistics Trail Chart Weather Telemetry Raw packets
 

This is the latest recevied weather packets stored in our database for station/object K6POO-1. If no packets are shown the sender has not sent any weather packets the latest 10 day(s).

<< 65 66 67 68 69 70 71 >>
Time Temp. Humidity Pressure Rain* Wind** Luminosity Snow
1788229232 16.67° C 76% 1013.4 hPa 0 mm - 25 W/m² -
1788228928 16.67° C 75% 1013.4 hPa 0 mm - 34 W/m² -
1788228623 16.67° C 74% 1013.5 hPa 0 mm - 45 W/m² -
1788228319 16.67° C 74% 1013.4 hPa 0 mm - 53 W/m² -
1788228014 16.67° C 74% 1013.7 hPa 0 mm - 57 W/m² -
1788227709 16.67° C 73% 1013.5 hPa 0 mm - 60 W/m² -
1788227409 16.67° C 73% 1013.6 hPa 0 mm - 52 W/m² -
1788227104 16.67° C 73% 1013.5 hPa 0 mm - 46 W/m² -
1788226800 16.67° C 72% 1013.6 hPa 0 mm - 76 W/m² -
1788226496 17.22° C 71% 1013.6 hPa 0 mm - 51 W/m² -
1788226191 17.22° C 72% 1013.5 hPa 0 mm - 99 W/m² -
1788225910 17.22° C 73% 1013.7 hPa 0 mm - 75 W/m² -
1788225586 17.22° C 72% 1013.7 hPa 0 mm - 106 W/m² -
1788225282 17.22° C 73% 1013.6 hPa 0 mm - 113 W/m² -
1788224980 17.22° C 73% 1013.6 hPa 0 mm - 127 W/m² -
1788224675 17.22° C 73% 1013.4 hPa 0 mm - 102 W/m² -
1788224375 17.22° C 73% 1013.5 hPa 0 mm - 78 W/m² -
1788224070 17.22° C 72% 1013.5 hPa 0 mm - 72 W/m² -
1788223765 17.78° C 73% 1013.4 hPa 0 mm - 167 W/m² -
1788223464 17.22° C 74% 1013.6 hPa 0 mm - 154 W/m² -
1788223159 17.22° C 74% 1013.7 hPa 0 mm - 168 W/m² -
1788222855 17.22° C 76% 1013.5 hPa 0 mm - 167 W/m² -
1788222553 17.22° C 76% 1013.5 hPa 0 mm - 149 W/m² -
1788222252 17.78° C 76% 1013.8 hPa 0 mm - 183 W/m² -
1788221947 17.22° C 76% 1013.6 hPa 0 mm - 190 W/m² -

* Rain latest hour (hover to see other rain measurements)
** Current wind speed in m/s (hover to see current wind gust speed)